When you browse on this site, cookies collect data to enhance your experience and personalize the content and advertising you see.
Visit our Privacy Policy to learn more. By continuing to use the site, you agree to this use of cookies and data.
  • Em Portugal
  • Lista de países
  • Para 7 dias
  • Temperatura da água
  • Mapa do tempo
  • Widgets de tempo
  • user-avatar
    Iniciar Sessão

    Previsão horária em Encamp

    Hoje, 18 Outubro, Sexta-feira

    Tempo Temperatura Precipitação Vento Pressão Humidade
    00:00 +6°C° 0 mm 1 m/s 622 mmHg 85%
    01:00 +6°C° 0 mm 1 m/s 621 mmHg 83%
    02:00 +5°C° 0 mm 2 m/s 621 mmHg 81%
    03:00 +5°C° 0 mm 2 m/s 621 mmHg 79%
    04:00 +6°C° 0 mm 2 m/s 621 mmHg 82%
    05:00 +6°C° 0 mm 2 m/s 622 mmHg 84%
    06:00 +8°C° 0 mm 1 m/s 622 mmHg 87%
    07:00 +9°C° 0 mm 1 m/s 623 mmHg 82%
    08:00 +11°C° 0 mm 1 m/s 623 mmHg 77%
    09:00 +12°C° 0 mm 1 m/s 624 mmHg 71%
    10:00 +13°C° 0 mm 1 m/s 624 mmHg 68%
    11:00 +14°C° 0 mm 2 m/s 625 mmHg 64%
    12:00 +14°C° 0 mm 2 m/s 625 mmHg 63%
    13:00 +14°C° 0 mm 2 m/s 624 mmHg 65%
    14:00 +14°C° 0 mm 2 m/s 624 mmHg 66%
    15:00 +13°C° 0 mm 2 m/s 623 mmHg 68%
    16:00 +12°C° 0 mm 2 m/s 622 mmHg 76%
    17:00 +10°C° 0 mm 2 m/s 622 mmHg 84%
    18:00 +8°C° 0 mm 2 m/s 621 mmHg 92%
    19:00 +8°C° 0 mm 2 m/s 621 mmHg 91%
    20:00 +8°C° 0 mm 2 m/s 621 mmHg 90%
    21:00 +8°C° 0 mm 2 m/s 621 mmHg 89%
    22:00 +8°C° 0.1 mm 2 m/s 620 mmHg 89%
    23:00 +8°C° 0.1 mm 2 m/s 620 mmHg 90%

    Amanhã, 19 Outubro, Sábado

    Tempo Temperatura Precipitação Vento Pressão Humidade
    00:00 +8°C° 0.1 mm 2 m/s 620 mmHg 90%
    01:00 +7°C° 0.1 mm 2 m/s 620 mmHg 91%
    02:00 +7°C° 0.1 mm 2 m/s 619 mmHg 92%
    03:00 +7°C° 0.1 mm 2 m/s 619 mmHg 93%
    04:00 +7°C° 0 mm 2 m/s 619 mmHg 93%
    05:00 +6°C° 0 mm 2 m/s 619 mmHg 93%
    06:00 +6°C° 0 mm 2 m/s 618 mmHg 93%
    07:00 +7°C° 0 mm 2 m/s 619 mmHg 87%
    08:00 +9°C° 0 mm 3 m/s 619 mmHg 81%
    09:00 +10°C° 0 mm 3 m/s 620 mmHg 74%
    10:00 +11°C° 0 mm 3 m/s 620 mmHg 70%
    11:00 +11°C° 0 mm 3 m/s 620 mmHg 66%
    12:00 +12°C° 0 mm 3 m/s 620 mmHg 62%
    13:00 +12°C° 0.1 mm 3 m/s 619 mmHg 65%
    14:00 +11°C° 0.1 mm 3 m/s 619 mmHg 68%
    15:00 +11°C° 0.1 mm 3 m/s 618 mmHg 72%
    16:00 +10°C° 0.1 mm 3 m/s 618 mmHg 77%
    17:00 +9°C° 0.1 mm 3 m/s 617 mmHg 83%
    18:00 +8°C° 0.1 mm 2 m/s 617 mmHg 89%
    19:00 +9°C° 0.3 mm 3 m/s 617 mmHg 90%
    20:00 +9°C° 0.3 mm 3 m/s 617 mmHg 92%
    21:00 +9°C° 0.3 mm 3 m/s 617 mmHg 94%
    22:00 +9°C° 0.2 mm 3 m/s 617 mmHg 93%
    23:00 +8°C° 0.2 mm 3 m/s 617 mmHg 93%

    Depois de amanhã, 20 Outubro, Domingo

    Tempo Temperatura Precipitação Vento Pressão Humidade
    00:00 +7°C° 0.2 mm 4 m/s 616 mmHg 93%
    01:00 +7°C° 0.1 mm 4 m/s 616 mmHg 92%
    02:00 +7°C° 0.1 mm 4 m/s 616 mmHg 91%
    03:00 +6°C° 0.1 mm 4 m/s 615 mmHg 90%
    04:00 +7°C° 1.3 mm 3 m/s 615 mmHg 92%
    05:00 +8°C° 1.3 mm 3 m/s 615 mmHg 93%
    06:00 +8°C° 1.3 mm 3 m/s 615 mmHg 94%
    07:00 +7°C° 5.6 mm 3 m/s 615 mmHg 95%
    08:00 +7°C° 5.6 mm 3 m/s 615 mmHg 95%
    09:00 +5°C° 5.6 mm 3 m/s 615 mmHg 95%
    10:00 +7°C° 0.3 mm 3 m/s 616 mmHg 87%
    11:00 +8°C° 0.3 mm 4 m/s 617 mmHg 79%
    12:00 +10°C° 0.3 mm 4 m/s 617 mmHg 71%
    13:00 +8°C° 0 mm 4 m/s 617 mmHg 67%
    14:00 +8°C° 0 mm 4 m/s 617 mmHg 64%
    15:00 +9°C° 0 mm 3 m/s 617 mmHg 60%
    16:00 +7°C° 0 mm 3 m/s 618 mmHg 69%
    17:00 +5°C° 0 mm 2 m/s 618 mmHg 78%
    18:00 +3°C° 0 mm 2 m/s 618 mmHg 86%
    19:00 +3°C° 0 mm 2 m/s 618 mmHg 85%
    20:00 +4°C° 0 mm 1 m/s 619 mmHg 84%
    21:00 +3°C° 0 mm 1 m/s 620 mmHg 83%
    22:00 +3°C° 0 mm 1 m/s 620 mmHg 84%
    23:00 +3°C° 0 mm 1 m/s 620 mmHg 85%

    21 Outubro, Segunda-feira

    Tempo Temperatura Precipitação Vento Pressão Humidade
    00:00 +3°C° 0 mm 1 m/s 620 mmHg 85%
    01:00 +3°C° 0 mm 1 m/s 620 mmHg 84%
    02:00 +3°C° 0 mm 1 m/s 621 mmHg 83%
    03:00 +4°C° 0 mm 1 m/s 621 mmHg 82%
    04:00 +3°C° 0 mm 1 m/s 621 mmHg 84%
    05:00 +2°C° 0 mm 1 m/s 621 mmHg 86%
    06:00 +2°C° 0 mm 1 m/s 621 mmHg 88%
    07:00 +3°C° 0 mm 1 m/s 622 mmHg 82%
    08:00 +5°C° 0 mm 1 m/s 622 mmHg 76%
    09:00 +6°C° 0 mm 1 m/s 623 mmHg 70%
    10:00 +7°C° 0.1 mm 1 m/s 624 mmHg 69%
    11:00 +7°C° 0.1 mm 1 m/s 624 mmHg 69%
    12:00 +8°C° 0.1 mm 1 m/s 624 mmHg 68%
    13:00 +7°C° 0.2 mm 1 m/s 624 mmHg 71%
    14:00 +7°C° 0.2 mm 1 m/s 624 mmHg 75%
    15:00 +6°C° 0.2 mm 1 m/s 623 mmHg 78%
    16:00 +5°C° 0.1 mm 1 m/s 623 mmHg 83%
    17:00 +4°C° 0.1 mm 0 m/s 623 mmHg 88%
    18:00 +3°C° 0.1 mm 0 m/s 623 mmHg 93%
    19:00 +2°C° 0 mm 0 m/s 623 mmHg 93%
    20:00 +3°C° 0 mm 1 m/s 623 mmHg 93%
    21:00 +2°C° 0 mm 1 m/s 623 mmHg 94%
    22:00 +2°C° 0 mm 1 m/s 623 mmHg 93%
    23:00 +2°C° 0 mm 1 m/s 623 mmHg 92%

    22 Outubro, Terça-feira

    Tempo Temperatura Precipitação Vento Pressão Humidade
    00:00 +2°C° 0 mm 1 m/s 623 mmHg 91%
    01:00 +2°C° 0 mm 1 m/s 623 mmHg 90%
    02:00 +2°C° 0 mm 1 m/s 622 mmHg 88%
    03:00 +2°C° 0 mm 1 m/s 622 mmHg 87%
    04:00 +3°C° 0 mm 1 m/s 622 mmHg 87%
    05:00 +2°C° 0 mm 2 m/s 622 mmHg 87%
    06:00 +2°C° 0 mm 2 m/s 622 mmHg 87%
    07:00 +3°C° 0.1 mm 2 m/s 622 mmHg 86%
    08:00 +3°C° 0.1 mm 2 m/s 623 mmHg 85%
    09:00 +4°C° 0.1 mm 2 m/s 623 mmHg 83%
    10:00 +4°C° 0.3 mm 2 m/s 623 mmHg 83%
    11:00 +5°C° 0.3 mm 2 m/s 622 mmHg 82%
    12:00 +6°C° 0.3 mm 1 m/s 622 mmHg 81%
    13:00 +6°C° 0.2 mm 1 m/s 622 mmHg 81%
    14:00 +6°C° 0.2 mm 2 m/s 621 mmHg 81%
    15:00 +6°C° 0.2 mm 2 m/s 621 mmHg 81%
    16:00 +5°C° 0.1 mm 2 m/s 621 mmHg 85%
    17:00 +4°C° 0.1 mm 2 m/s 620 mmHg 88%
    18:00 +4°C° 0.1 mm 2 m/s 620 mmHg 91%
    19:00 +4°C° 0 mm 2 m/s 620 mmHg 91%
    20:00 +4°C° 0 mm 2 m/s 620 mmHg 91%
    21:00 +4°C° 0 mm 2 m/s 620 mmHg 90%
    22:00 +4°C° 1 mm 2 m/s 620 mmHg 92%
    23:00 +6°C° 1 mm 1 m/s 620 mmHg 93%

    23 Outubro, Quarta-feira

    Tempo Temperatura Precipitação Vento Pressão Humidade
    00:00 +6°C° 1 mm 1 m/s 619 mmHg 95%
    01:00 +5°C° 0.9 mm 2 m/s 619 mmHg 95%
    02:00 +6°C° 0.9 mm 2 m/s 619 mmHg 95%
    03:00 +6°C° 0.9 mm 2 m/s 618 mmHg 95%
    04:00 +6°C° 2 mm 2 m/s 618 mmHg 95%
    05:00 +5°C° 2 mm 3 m/s 617 mmHg 96%
    06:00 +5°C° 2 mm 3 m/s 617 mmHg 96%
    07:00 +5°C° 3.1 mm 3 m/s 617 mmHg 96%
    08:00 +6°C° 3.1 mm 2 m/s 617 mmHg 96%
    09:00 +7°C° 3.1 mm 2 m/s 617 mmHg 97%
    10:00 +7°C° 3.2 mm 2 m/s 617 mmHg 96%
    11:00 +7°C° 3.2 mm 3 m/s 617 mmHg 96%
    12:00 +7°C° 3.2 mm 3 m/s 616 mmHg 95%
    13:00 +7°C° 4.1 mm 3 m/s 616 mmHg 95%
    14:00 +5°C° 4.1 mm 3 m/s 615 mmHg 96%
    15:00 +5°C° 4.1 mm 3 m/s 614 mmHg 96%
    16:00 +4°C° 9.7 mm 3 m/s 614 mmHg 96%
    17:00 +4°C° 9.7 mm 3 m/s 614 mmHg 96%
    18:00 +3°C° 9.7 mm 3 m/s 614 mmHg 95%
    19:00 +3°C° 0.9 mm 3 m/s 614 mmHg 95%
    20:00 +3°C° 0.9 mm 3 m/s 614 mmHg 95%
    21:00 +3°C° 0.9 mm 3 m/s 615 mmHg 95%
    22:00 +3°C° 0.4 mm 3 m/s 615 mmHg 95%
    23:00 +4°C° 0.4 mm 2 m/s 614 mmHg 96%
    Mostrar mais